PBO Station Position Time Series. Reference Frame : NAM14
Format Version,1.1.1
4-character ID,P595
Station name,SearlesValCS2005
Begin Date, 2005-10-23
End Date, 2023-06-26
Release Date, 2023-06-27
Reference position, 35.6975597182 North Latitude, -117.4028362038 East Longitude, 644.42638 meters elevation,
Date, North (mm), East (mm), Vertical (mm), North Std. Deviation (mm), East Std. Deviation (mm),              Vertical Std. Deviation (mm), Quality,
2005-10-23,0.00, 0.00, 0.00, 2.02, 1.66, 7.48, repro,
2005-10-24,-0.58, 0.19, -6.41, 2.05, 1.74, 7.74, repro,
2005-10-25,1.37, 2.05, -0.60, 2.04, 1.68, 7.60, repro,
2005-10-26,0.80, 1.42, -5.35, 2.09, 1.74, 7.79, repro,
2005-10-27,-0.34, 0.10, -6.16, 2.05, 1.66, 7.52, repro,
2005-10-28,-1.22, 0.22, -5.19, 2.01, 1.61, 7.32, repro,
2005-10-29,0.82, 0.72, -0.01, 2.02, 1.66, 7.52, repro,
2005-10-30,0.26, 1.08, -7.17, 2.00, 1.62, 7.34, repro,
2005-10-31,1.48, 2.04, -13.76, 2.17, 1.76, 8.01, repro,
2005-11-01,1.82, 1.67, -8.07, 2.19, 1.82, 8.12, repro,
2005-11-02,1.75, 1.56, -8.09, 2.13, 1.79, 7.85, repro,
2005-11-03,1.14, 0.72, -6.16, 2.09, 1.74, 7.68, repro,
2005-11-04,1.54, 0.84, -6.05, 2.09, 1.78, 7.72, repro,
2005-11-05,0.51, 0.95, -5.42, 2.11, 1.81, 7.88, repro,
2005-11-06,0.54, 1.50, -0.39, 2.12, 1.83, 7.94, repro,
2005-11-07,1.66, 1.40, -4.58, 2.11, 1.81, 7.92, repro,
2005-11-08,0.60, 1.36, -10.59, 2.09, 1.75, 7.74, repro,
2005-11-09,0.11, 1.53, -9.53, 2.15, 1.85, 8.00, repro,
2005-11-10,-1.41, 0.05, -5.31, 2.24, 1.86, 8.46, repro,
2005-11-11,2.18, 0.94, -4.23, 2.26, 1.87, 8.40, repro,
2005-11-12,0.70, 0.76, -4.67, 2.00, 1.69, 7.42, repro,
2005-11-13,-0.55, 1.22, -7.30, 2.21, 1.85, 8.24, repro,
2005-11-14,1.66, 1.26, -10.20, 2.12, 1.78, 7.80, repro,
2005-11-15,0.03, 1.28, -9.19, 2.00, 1.62, 7.34, repro,
2005-11-16,1.87, 1.43, -14.03, 2.04, 1.71, 7.57, repro,
2005-11-17,1.23, 0.68, -13.90, 2.00, 1.63, 7.38, repro,
2005-11-18,0.71, 1.27, -10.87, 2.01, 1.62, 7.40, repro,
2005-11-19,1.30, 1.55, -11.16, 2.02, 1.63, 7.40, repro,
2005-11-20,0.76, 0.70, -11.98, 2.03, 1.66, 7.46, repro,
2005-11-21,0.65, -0.06, -7.21, 2.19, 1.76, 8.07, repro,
2005-11-22,0.28, 1.11, -10.31, 2.04, 1.73, 7.67, repro,
2005-11-23,0.42, 1.11, -8.18, 2.05, 1.71, 7.67, repro,
2005-11-24,0.62, 0.08, -6.34, 2.02, 1.63, 7.44, repro,
2005-11-25,0.03, 0.96, -6.62, 2.07, 1.68, 7.62, repro,
2005-11-26,2.75, 3.17, -3.84, 2.11, 1.76, 7.88, repro,
2005-11-27,0.56, 0.99, -6.69, 2.06, 1.73, 7.71, repro,
2005-11-28,1.00, 0.79, -7.47, 2.09, 1.74, 7.81, repro,
2005-11-29,0.13, 0.94, -10.19, 2.05, 1.66, 7.53, repro,
2005-11-30,1.21, 0.62, -11.41, 2.04, 1.66, 7.50, repro,
2005-12-01,3.73, 0.71, -11.70, 2.05, 1.69, 7.60, repro,
2005-12-02,8.57, -0.07, -4.88, 2.04, 1.68, 7.55, repro,
2005-12-03,0.45, 1.29, -5.44, 2.00, 1.64, 7.36, repro,
2005-12-04,0.72, 0.28, -17.00, 2.03, 1.65, 7.47, repro,
2005-12-05,-0.53, 1.39, -18.54, 2.05, 1.65, 7.51, repro,
2005-12-06,-0.16, 1.11, -13.78, 2.07, 1.64, 7.47, repro,
2005-12-07,-0.13, 1.47, -9.85, 2.05, 1.68, 7.57, repro,
2005-12-08,-0.64, 1.92, -9.69, 2.04, 1.69, 7.55, repro,
2005-12-09,1.23, 0.39, -9.69, 2.01, 1.65, 7.41, repro,
2005-12-10,0.62, -0.19, -10.14, 2.04, 1.66, 7.54, repro,
2005-12-11,0.14, 0.40, -5.53, 2.00, 1.61, 7.34, repro,
2005-12-12,0.38, 0.77, -6.51, 1.99, 1.61, 7.30, repro,
2005-12-13,-0.68, 0.47, -6.62, 2.02, 1.66, 7.53, repro,
2005-12-14,0.09, 0.60, -9.89, 2.00, 1.64, 7.37, repro,
2005-12-15,0.50, 0.18, -12.73, 2.11, 1.72, 7.78, repro,
2005-12-16,0.56, 0.24, -7.15, 2.01, 1.62, 7.37, repro,
2005-12-17,-0.20, 0.37, -9.05, 2.10, 1.72, 7.69, repro,
2005-12-18,0.94, 0.53, -9.62, 2.11, 1.77, 7.81, repro,
2005-12-19,0.95, 0.92, -20.63, 2.11, 1.76, 7.65, repro,
2005-12-20,1.53, 0.71, -11.69, 2.07, 1.80, 7.65, repro,
2005-12-21,1.01, 0.07, -11.08, 2.04, 1.75, 7.50, repro,
2005-12-22,1.36, 2.53, -10.60, 2.05, 1.76, 7.56, repro,
2005-12-23,2.00, 0.41, -13.85, 2.15, 1.80, 7.85, repro,
2005-12-24,0.79, -0.75, -13.00, 2.27, 1.92, 8.29, repro,
2005-12-25,-0.77, 0.64, -8.74, 2.16, 1.78, 7.91, repro,
2005-12-26,-0.11, 2.97, 2.30, 2.09, 1.72, 7.61, repro,
2005-12-27,0.52, 0.29, -10.00, 2.14, 1.75, 7.88, repro,
2005-12-28,1.16, 0.77, -13.53, 2.08, 1.70, 7.53, repro,
2005-12-29,-0.86, 1.56, -7.02, 2.18, 1.78, 8.05, repro,
2005-12-30,-0.09, 1.43, -1.76, 2.28, 1.90, 8.38, repro,
2005-12-31,1.12, 1.78, 0.14, 2.33, 2.01, 8.65, repro,
2006-01-01,1.26, -0.09, -14.35, 2.12, 1.75, 7.83, repro,
2006-01-02,-0.99, 2.92, -5.06, 2.06, 1.72, 7.56, repro,
2006-01-03,2.19, 0.51, -6.17, 2.33, 2.02, 8.64, repro,
2006-01-04,0.54, -0.24, -11.77, 2.28, 1.94, 8.37, repro,
2006-01-05,1.05, 0.52, -17.57, 2.15, 1.84, 7.98, repro,
2006-01-06,0.69, 0.18, -12.10, 2.22, 1.85, 8.18, repro,
2006-01-07,1.67, 0.37, -8.94, 2.16, 1.84, 7.88, repro,
2006-01-08,-0.09, 1.37, -4.80, 2.15, 1.82, 7.78, repro,
2006-01-09,0.19, 0.22, -10.22, 2.24, 1.88, 8.17, repro,
2006-01-10,1.00, 0.29, -8.61, 2.18, 1.80, 7.95, repro,
2006-01-11,1.06, 0.30, -5.35, 2.25, 1.93, 8.39, repro,
2006-01-12,1.10, 0.27, -5.46, 2.11, 1.78, 7.72, repro,
2006-01-13,0.85, 0.80, -6.48, 2.35, 1.97, 8.78, repro,
2006-01-14,3.05, 1.56, -11.12, 2.14, 1.74, 7.79, repro,
2006-01-15,1.18, 1.09, -0.43, 2.47, 2.05, 8.77, repro,
2006-01-16,0.45, -0.38, -5.77, 2.18, 1.83, 7.88, repro,
2006-01-17,0.21, -0.28, -14.13, 2.18, 1.82, 7.97, repro,
2006-01-18,3.90, 1.49, -12.39, 2.23, 1.82, 8.33, repro,
2006-01-19,0.55, 0.05, -2.85, 2.27, 1.78, 8.20, repro,
2006-01-20,0.43, 0.05, -11.79, 2.08, 1.65, 7.61, repro,
2006-01-21,0.99, 0.55, -8.22, 2.07, 1.65, 7.45, repro,
2006-01-22,0.75, -0.45, -11.65, 2.07, 1.63, 7.41, repro,
2006-01-23,0.40, -0.42, -5.02, 2.07, 1.64, 7.57, repro,
2006-01-24,0.70, -0.17, -13.07, 2.29, 1.80, 8.45, repro,
2006-01-25,0.56, 0.31, -11.86, 2.21, 1.70, 7.72, repro,
2006-01-26,0.92, 0.27, -9.57, 2.08, 1.66, 7.54, repro,
2006-01-27,0.82, 0.07, -5.30, 1.95, 1.57, 7.13, repro,
2006-01-28,1.13, -0.08, -8.98, 1.97, 1.60, 7.27, repro,
2006-01-29,0.55, 0.63, -13.62, 1.98, 1.58, 7.20, repro,
2006-01-30,0.93, 0.13, -10.53, 1.96, 1.58, 7.20, repro,
2006-01-31,0.66, 0.37, -3.62, 2.10, 1.68, 7.83, repro,
2006-02-01,0.37, -0.79, -3.61, 1.98, 1.57, 7.20, repro,
2006-02-02,1.56, -0.59, -1.91, 1.97, 1.58, 7.27, repro,
2006-02-03,0.62, -0.56, -4.23, 1.99, 1.59, 7.36, repro,
2006-02-04,1.22, -0.32, -7.94, 1.97, 1.57, 7.26, repro,
2006-02-05,0.63, -0.08, -10.33, 1.98, 1.58, 7.31, repro,
2006-02-06,0.55, -0.09, -12.79, 1.97, 1.57, 7.26, repro,
2006-02-07,0.87, -0.41, -12.19, 1.97, 1.57, 7.28, repro,
2006-02-08,1.07, 0.49, -14.26, 1.97, 1.57, 7.29, repro,
2006-02-09,0.91, 0.00, -12.45, 2.04, 1.59, 7.53, repro,
2006-02-10,0.55, -0.13, -15.63, 2.11, 1.60, 7.64, repro,
2006-02-11,0.43, 0.31, -20.42, 1.99, 1.57, 7.32, repro,
2006-02-12,0.96, 0.10, -17.20, 1.99, 1.57, 7.36, repro,
2006-02-13,0.46, -0.03, -11.29, 1.98, 1.56, 7.32, repro,
2006-02-14,0.68, -0.45, -3.14, 1.98, 1.57, 7.33, repro,
2006-02-15,1.80, -2.51, -16.27, 2.01, 1.62, 7.54, repro,
2006-02-16,0.09, 1.40, -12.44, 1.98, 1.56, 7.25, repro,
2006-02-17,0.20, -0.38, -9.42, 2.03, 1.58, 7.40, repro,
2006-02-18,-0.25, -2.70, -13.32, 1.98, 1.58, 7.30, repro,
2006-02-19,0.11, -0.22, -12.79, 1.98, 1.59, 7.31, repro,
2006-02-20,1.06, 0.17, -4.89, 1.99, 1.58, 7.32, repro,
2006-02-21,1.66, 0.20, -5.25, 1.98, 1.58, 7.29, repro,
2006-02-22,1.02, 0.44, -2.60, 1.98, 1.58, 7.28, repro,
2006-02-23,0.15, 0.29, -6.29, 1.97, 1.57, 7.24, repro,
2006-02-24,-0.03, 0.16, -10.26, 1.98, 1.59, 7.27, repro,
2006-02-25,0.86, 0.35, -11.18, 1.99, 1.60, 7.33, repro,
2006-02-26,0.05, 0.31, -5.45, 1.98, 1.60, 7.32, repro,
2006-02-27,-0.92, -2.13, -8.86, 1.99, 1.60, 7.31, repro,
2006-02-28,0.29, 2.70, -0.41, 1.99, 1.62, 7.33, repro,
2006-03-01,0.64, 1.18, -3.58, 2.04, 1.66, 7.42, repro,
2006-03-02,1.19, 0.67, -8.65, 1.96, 1.60, 7.24, repro,
2006-03-03,1.78, 0.02, -5.09, 2.05, 1.62, 7.57, repro,
2006-03-04,1.41, 1.08, -16.66, 2.03, 1.66, 7.45, repro,
2006-03-05,0.16, 0.11, -7.89, 1.96, 1.59, 7.22, repro,
2006-03-06,0.23, 0.75, -10.88, 1.95, 1.60, 7.22, repro,
2006-03-07,0.44, 1.96, -9.94, 1.96, 1.60, 7.28, repro,
2006-03-08,0.14, 1.97, -5.67, 1.95, 1.60, 7.26, repro,
2006-03-09,0.33, -0.37, 0.10, 1.98, 1.66, 7.53, repro,
2006-03-10,0.31, -1.40, -1.29, 1.95, 1.60, 7.25, repro,
2006-03-11,0.78, 1.29, 1.47, 1.99, 1.62, 7.34, repro,
2006-03-12,0.94, -0.08, -4.41, 1.98, 1.61, 7.28, repro,
2006-03-13,1.25, 1.17, -10.17, 1.99, 1.63, 7.40, repro,
2006-03-14,-0.30, 1.32, -2.80, 1.98, 1.63, 7.35, repro,
2006-03-15,0.80, 0.11, -6.60, 2.01, 1.65, 7.43, repro,
2006-03-16,-0.14, -0.77, -15.00, 2.05, 1.66, 7.46, repro,
2006-03-17,-0.30, -1.34, -4.99, 2.06, 1.66, 7.46, repro,
2006-03-18,0.60, 0.26, -4.16, 1.97, 1.63, 7.28, repro,
2006-03-19,0.04, -0.00, -5.72, 1.99, 1.64, 7.32, repro,
2006-03-20,0.46, 0.13, -5.76, 1.97, 1.64, 7.31, repro,
2006-03-21,0.27, -0.74, -5.25, 1.99, 1.66, 7.39, repro,
2006-03-22,-0.01, 0.00, -12.63, 1.99, 1.65, 7.38, repro,
2006-03-23,0.38, -0.16, -15.53, 2.05, 1.66, 7.50, repro,
2006-03-24,0.01, 0.56, -7.38, 2.03, 1.66, 7.50, repro,
2006-03-25,3.07, 4.90, -1.64, 2.09, 1.75, 7.71, repro,
2006-03-26,1.11, 0.58, -6.48, 2.15, 1.70, 7.92, repro,
2006-03-27,0.66, -0.54, -1.94, 2.06, 1.68, 7.62, repro,
2006-03-28,-0.19, -0.03, 1.23, 1.99, 1.63, 7.40, repro,
2006-03-29,0.75, -2.47, -4.18, 1.94, 1.63, 7.29, repro,
2006-03-30,0.39, 0.47, -3.30, 1.92, 1.61, 7.22, repro,
2006-03-31,0.46, -0.44, -2.92, 1.92, 1.61, 7.22, repro,
2006-04-01,-0.47, -1.77, -4.02, 1.95, 1.62, 7.33, repro,
2006-04-02,0.59, -0.54, -4.33, 1.93, 1.61, 7.26, repro,
2006-04-03,0.69, -0.64, -9.72, 1.94, 1.62, 7.29, repro,
2006-04-04,2.33, -0.67, -3.02, 1.93, 1.62, 7.27, repro,
2006-04-05,-0.26, -0.32, 0.29, 1.95, 1.66, 7.50, repro,
2006-04-06,0.41, -1.45, -7.25, 1.95, 1.65, 7.42, repro,
2006-04-07,0.71, -0.55, -6.58, 2.02, 1.67, 7.56, repro,
2006-04-08,2.12, 0.25, -7.48, 2.07, 1.66, 7.76, repro,
2006-04-09,1.43, -0.51, -9.16, 1.94, 1.62, 7.32, repro,
2006-04-10,1.63, -0.64, -5.05, 1.94, 1.61, 7.28, repro,
2006-04-11,-0.46, -2.84, -5.34, 1.99, 1.63, 7.55, repro,
2006-04-12,0.61, -0.31, -5.61, 1.99, 1.63, 7.58, repro,
2006-04-13,-0.44, 0.15, -4.96, 1.94, 1.61, 7.29, repro,
2006-04-14,0.59, -1.11, -5.00, 1.93, 1.61, 7.29, repro,
2006-04-15,1.38, 0.31, -3.91, 1.99, 1.64, 7.45, repro,
2006-04-16,1.76, 0.08, -0.83, 1.93, 1.62, 7.32, repro,
2006-04-17,4.01, -3.36, -1.47, 1.95, 1.63, 7.43, repro,
2006-04-18,1.42, -0.47, -5.29, 1.95, 1.64, 7.47, repro,
2006-04-19,1.18, -0.42, -6.46, 1.94, 1.61, 7.32, repro,
2006-04-20,1.12, -0.48, -2.91, 1.96, 1.65, 7.46, repro,
2006-04-21,1.20, -2.69, -1.65, 1.94, 1.62, 7.36, repro,
2006-04-22,0.20, -0.81, -5.66, 1.93, 1.61, 7.28, repro,
2006-04-23,0.35, -0.17, -0.22, 1.98, 1.66, 7.52, repro,
2006-04-24,0.77, -0.53, -8.06, 1.96, 1.65, 7.43, repro,
2006-04-25,1.25, 0.12, -6.25, 1.99, 1.74, 7.66, repro,
2006-04-26,2.05, 0.07, -6.54, 1.97, 1.67, 7.48, repro,
2006-04-27,-0.15, -1.41, -4.59, 2.02, 1.68, 7.53, repro,
2006-04-28,0.95, -0.28, -5.46, 1.99, 1.63, 7.39, repro,
2006-04-29,1.04, -0.51, -7.63, 1.94, 1.60, 7.30, repro,
2006-04-30,1.44, -0.34, -9.95, 1.94, 1.61, 7.34, repro,
2006-05-01,1.47, -0.94, -10.93, 1.94, 1.61, 7.30, repro,
2006-05-02,-0.01, -0.36, -7.89, 2.01, 1.68, 7.72, repro,
2006-05-03,0.69, 0.15, -7.07, 1.95, 1.62, 7.38, repro,
2006-05-04,2.02, -0.58, -9.13, 1.95, 1.60, 7.28, repro,
2006-05-05,0.70, -1.74, -0.95, 1.99, 1.65, 7.53, repro,
2006-05-06,1.47, 0.22, -2.13, 1.94, 1.61, 7.36, repro,
2006-05-07,1.30, -1.17, -6.14, 1.92, 1.61, 7.28, repro,
2006-05-08,1.02, -1.04, -7.49, 1.93, 1.61, 7.30, repro,
2006-05-09,0.60, -0.93, -3.87, 2.01, 1.63, 7.52, repro,
2006-05-10,1.53, -0.37, -4.50, 1.95, 1.61, 7.34, repro,
2006-05-11,2.14, -0.84, -4.09, 1.93, 1.62, 7.35, repro,
2006-05-12,1.96, -0.40, -7.31, 1.94, 1.62, 7.37, repro,
2006-05-13,0.28, -0.24, -8.25, 1.93, 1.61, 7.34, repro,
2006-05-14,1.04, -0.40, -6.88, 2.00, 1.65, 7.53, repro,
2006-05-15,0.24, -0.61, -11.34, 1.96, 1.61, 7.39, repro,
2006-05-16,-0.24, -0.49, -9.92, 1.97, 1.64, 7.43, repro,
2006-05-17,1.27, 0.06, -2.50, 1.97, 1.66, 7.47, repro,
2006-05-18,-0.42, 0.39, 5.01, 1.99, 1.63, 7.54, repro,
2006-05-19,1.75, -0.79, 2.04, 2.10, 1.70, 7.79, repro,
2006-05-20,1.72, 0.14, -3.87, 2.04, 1.63, 7.60, repro,
2006-05-21,2.64, 0.84, 0.19, 2.08, 1.65, 7.66, repro,
2006-05-22,0.34, -0.54, -0.58, 2.03, 1.68, 7.62, repro,
2006-05-23,1.06, -0.08, -6.87, 2.03, 1.63, 7.52, repro,
2006-05-24,0.23, -0.16, -1.80, 2.04, 1.66, 7.66, repro,
2006-05-25,0.16, -0.41, -2.26, 2.15, 1.69, 8.01, repro,
2006-05-26,-0.18, -1.11, 1.75, 2.10, 1.67, 7.86, repro,
2006-05-27,2.14, -3.95, 3.25, 2.04, 1.64, 7.58, repro,
2006-05-28,0.27, 0.24, 4.24, 2.02, 1.63, 7.53, repro,
2006-05-29,-0.02, 0.24, -2.40, 2.05, 1.66, 7.65, repro,
2006-05-30,0.56, -0.27, -7.47, 2.10, 1.70, 7.81, repro,
2006-05-31,-0.66, -0.22, -4.77, 2.10, 1.69, 7.78, repro,
2006-06-01,0.21, -0.75, -5.43, 2.05, 1.65, 7.61, repro,
2006-06-02,-0.48, 0.64, -3.23, 2.18, 1.73, 7.99, repro,
2006-06-03,-0.47, 1.31, -3.62, 2.08, 1.66, 7.67, repro,
2006-06-04,0.54, -1.17, -6.11, 2.08, 1.66, 7.66, repro,
2006-06-05,-1.45, 0.93, -5.72, 2.10, 1.69, 7.77, repro,
2006-06-06,0.06, 0.01, -0.59, 2.07, 1.66, 7.63, repro,
2006-06-07,0.05, 0.30, -3.42, 2.07, 1.67, 7.69, repro,
2006-06-08,-0.90, 2.16, 0.61, 2.03, 1.65, 7.60, repro,
2006-06-09,-0.89, 0.39, -1.86, 2.09, 1.71, 7.95, repro,
2006-06-10,-0.10, -0.62, -2.40, 2.02, 1.63, 7.48, repro,
2006-06-11,0.10, 0.32, -1.87, 2.10, 1.68, 7.73, repro,
2006-06-12,-1.89, 0.01, 5.58, 2.05, 1.64, 7.71, repro,
2006-06-13,1.97, 0.96, -3.07, 2.07, 1.66, 7.68, repro,
2006-06-14,0.35, -0.17, -1.15, 2.02, 1.62, 7.51, repro,
2006-06-15,0.15, 0.09, -2.66, 2.02, 1.63, 7.52, repro,
2006-06-16,0.39, -0.74, 4.26, 2.09, 1.70, 7.75, repro,
2006-06-17,0.13, 0.46, 0.25, 2.00, 1.61, 7.45, repro,
2006-06-18,-0.22, -1.39, 6.41, 2.04, 1.67, 7.76, repro,
2006-06-19,1.07, -0.69, -7.03, 2.05, 1.68, 7.79, repro,
2006-06-20,1.21, 0.39, -5.48, 2.07, 1.70, 7.84, repro,
2006-06-21,-0.66, 0.42, 0.64, 2.09, 1.73, 7.96, repro,
2006-06-22,-0.86, 1.00, -0.40, 2.08, 1.70, 7.83, repro,
2006-06-23,-0.12, 0.01, -3.59, 2.03, 1.66, 7.72, repro,
2006-06-24,0.52, 1.28, 1.35, 2.04, 1.68, 7.79, repro,
2006-06-25,1.27, 0.73, -15.45, 2.04, 1.68, 7.79, repro,
2006-06-26,-0.14, -0.08, -8.24, 2.05, 1.67, 7.78, repro,
2006-06-27,-0.79, 1.52, -2.87, 2.11, 1.75, 8.00, repro,
2006-06-28,-1.55, 0.39, -8.74, 2.07, 1.70, 7.90, repro,
2006-06-29,-0.30, 0.67, -4.39, 2.09, 1.82, 8.19, repro,
2006-06-30,1.99, -0.60, 5.59, 2.04, 1.68, 7.79, repro,
2006-07-01,1.93, 1.08, -7.00, 2.04, 1.68, 7.80, repro,
2006-07-02,-0.61, 0.96, -2.11, 2.04, 1.68, 7.83, repro,
2006-07-03,1.58, 1.00, -10.42, 2.01, 1.62, 7.61, repro,
2006-07-04,-0.98, 0.60, -2.04, 2.00, 1.63, 7.62, repro,
2006-07-05,-0.55, 1.89, -5.95, 2.07, 1.76, 8.07, repro,
2006-07-06,0.39, 0.13, -11.01, 2.01, 1.63, 7.68, repro,
2006-07-07,0.14, 0.88, -7.28, 2.01, 1.63, 7.65, repro,
2006-07-08,-0.80, 1.03, -16.71, 2.03, 1.63, 7.70, repro,
2006-07-09,1.96, 1.60, -1.55, 2.09, 1.66, 7.93, repro,
2006-07-10,-1.39, 0.31, 3.09, 2.01, 1.63, 7.66, repro,
2006-07-11,0.06, 1.33, -7.85, 2.03, 1.65, 7.75, repro,
2006-07-12,1.47, 0.68, -13.36, 2.01, 1.63, 7.68, repro,
2006-07-13,0.61, -0.85, -4.89, 2.01, 1.62, 7.62, repro,
2006-07-14,1.16, -0.37, -6.28, 2.00, 1.62, 7.59, repro,
2006-07-15,-1.43, -0.75, 1.99, 2.02, 1.65, 7.73, repro,
2006-07-16,1.26, 0.35, -3.15, 2.01, 1.65, 7.73, repro,
2006-07-17,0.22, 0.85, -2.78, 2.11, 1.74, 8.12, repro,
2006-07-18,-0.86, -0.10, -4.51, 2.02, 1.64, 7.70, repro,
2006-07-19,-0.06, -0.39, -2.53, 2.12, 1.78, 8.41, repro,
2006-07-20,1.21, 0.13, -6.35, 2.06, 1.80, 7.99, repro,
2006-07-21,0.52, 1.00, -8.08, 1.95, 1.62, 7.38, repro,
2006-07-22,-0.73, -2.29, -5.05, 1.95, 1.63, 7.48, repro,
2006-07-23,0.02, 2.02, -8.95, 1.95, 1.62, 7.38, repro,
2006-07-24,2.09, -0.92, 0.08, 1.94, 1.60, 7.31, repro,
2006-07-25,0.71, 0.06, -0.43, 1.98, 1.67, 7.44, repro,
2006-07-26,0.24, 0.05, 3.63, 2.06, 1.82, 7.85, repro,
2006-07-27,-0.14, 0.77, -2.68, 1.96, 1.63, 7.47, repro,
2006-07-28,0.86, 1.09, -6.11, 1.94, 1.61, 7.36, repro,
2006-07-29,0.86, -0.02, -6.34, 1.98, 1.66, 7.43, repro,
2006-07-30,1.16, 0.52, -2.33, 1.97, 1.65, 7.40, repro,
2006-07-31,-0.14, 2.22, -0.45, 1.95, 1.61, 7.37, repro,
2006-08-01,0.30, 1.25, 2.28, 1.96, 1.63, 7.49, repro,
2006-08-02,-0.08, 1.44, 1.07, 1.97, 1.67, 7.64, repro,
2006-08-03,0.21, 1.78, -6.14, 2.00, 1.71, 7.70, repro,
2006-08-04,0.01, 0.57, -7.02, 2.08, 1.73, 7.92, repro,
2006-08-05,-0.96, 1.84, -2.78, 2.01, 1.71, 7.77, repro,
2006-08-06,0.27, -0.10, -6.75, 2.05, 1.72, 7.87, repro,
2006-08-07,0.16, 1.25, -7.59, 2.08, 1.89, 8.21, repro,
2006-08-08,0.74, 0.26, -5.01, 1.98, 1.67, 7.50, repro,
2006-08-09,-0.72, -0.32, -5.79, 2.05, 1.79, 7.96, repro,
2006-08-10,0.71, 1.17, -7.83, 1.95, 1.61, 7.38, repro,
2006-08-11,-1.06, 0.85, -2.17, 1.98, 1.63, 7.46, repro,
2006-08-12,-1.13, 1.89, -4.74, 1.95, 1.64, 7.44, repro,
2006-08-13,-1.98, 0.21, 1.54, 1.96, 1.64, 7.46, repro,
2006-08-14,-1.11, 0.60, -0.10, 1.99, 1.68, 7.51, repro,
2006-08-15,0.82, 1.15, 2.80, 2.05, 1.69, 7.63, repro,
2006-08-16,0.23, 0.54, -7.96, 1.99, 1.68, 7.53, repro,
2006-08-17,0.27, 1.35, -3.55, 2.07, 1.71, 7.71, repro,
2006-08-18,-0.22, 1.13, -2.02, 2.00, 1.73, 7.66, repro,
2006-08-19,-0.41, 0.60, -8.27, 1.93, 1.61, 7.28, repro,
2006-08-20,0.17, 0.77, -5.95, 1.93, 1.62, 7.36, repro,
2006-08-21,-0.44, 0.75, -9.74, 1.95, 1.64, 7.39, repro,
2006-08-22,-0.83, 1.40, -0.94, 1.98, 1.65, 7.44, repro,
2006-08-23,-0.28, 0.87, -0.02, 1.96, 1.66, 7.47, repro,
2006-08-24,0.65, 0.28, 5.80, 1.95, 1.64, 7.39, repro,
2006-08-25,-0.06, 0.83, 3.10, 1.98, 1.67, 7.59, repro,
2006-08-26,-1.17, 0.47, 2.55, 2.00, 1.71, 7.74, repro,
2006-08-27,-0.19, 0.95, -4.29, 2.02, 1.73, 7.83, repro,
2006-08-28,-0.49, 1.13, -2.35, 2.01, 1.74, 7.84, repro,
2006-08-29,0.46, 0.44, -3.68, 2.02, 1.72, 7.83, repro,
2006-08-30,1.62, 0.41, 1.44, 2.09, 1.76, 8.09, repro,
2006-08-31,-0.23, 0.83, -3.70, 2.01, 1.73, 7.80, repro,
2006-09-01,-0.88, 0.34, -7.30, 2.06, 1.76, 7.91, repro,
2006-09-02,0.23, -0.58, -4.54, 2.02, 1.73, 7.87, repro,
2006-09-03,0.79, 0.86, -5.32, 2.02, 1.73, 7.84, repro,
2006-09-04,0.67, 0.73, -10.32, 2.08, 1.77, 8.06, repro,
2006-09-05,-1.15, 3.94, -7.02, 2.14, 1.79, 8.24, repro,
2006-09-06,-1.28, 2.53, -17.34, 2.03, 1.74, 7.87, repro,
2006-09-07,0.31, 0.33, -10.21, 2.07, 1.80, 8.11, repro,
2006-09-08,2.37, -0.51, -5.26, 2.07, 1.79, 8.09, repro,
2006-09-09,0.07, 0.48, -7.53, 1.99, 1.69, 7.58, repro,
2006-09-10,1.09, 1.08, -4.53, 1.97, 1.68, 7.49, repro,
2006-09-11,0.70, 1.09, -5.83, 1.98, 1.69, 7.53, repro,
2006-09-12,-0.45, 1.98, -6.93, 2.00, 1.70, 7.63, repro,
2006-09-13,0.42, 1.66, -4.95, 1.99, 1.69, 7.65, repro,
2006-09-14,-0.93, 0.55, -6.13, 2.09, 1.76, 7.85, repro,
2006-09-15,0.96, -0.85, -8.65, 2.05, 1.67, 7.68, repro,
2006-09-16,0.73, 1.32, 1.36, 2.00, 1.72, 7.55, repro,
2006-09-17,0.05, 0.48, -3.30, 1.96, 1.65, 7.44, repro,
2006-09-18,-0.29, 1.05, -0.99, 1.97, 1.65, 7.47, repro,
2006-09-19,0.16, 1.04, -2.97, 1.96, 1.64, 7.45, repro,
2006-09-20,0.20, 0.66, -9.85, 1.95, 1.63, 7.39, repro,
2006-09-21,0.68, -0.36, -0.50, 1.98, 1.68, 7.56, repro,
2006-09-22,0.48, 0.40, 1.21, 2.10, 1.80, 8.10, repro,
2006-09-23,0.36, -0.42, -3.89, 2.02, 1.69, 7.66, repro,
2006-09-24,0.59, 1.39, -6.74, 2.14, 1.73, 8.09, repro,
2006-09-25,0.23, 1.03, -4.87, 2.09, 1.73, 7.94, repro,
2006-09-26,0.40, 1.18, -4.60, 2.12, 1.81, 8.03, repro,
2006-09-27,1.30, 1.56, -8.37, 2.17, 1.84, 8.28, repro,
2006-09-28,0.85, 0.69, -4.98, 2.05, 1.72, 7.71, repro,
2006-09-29,0.10, 0.10, -0.58, 2.09, 1.78, 8.01, repro,
2006-09-30,-0.54, 0.68, 1.20, 2.00, 1.69, 7.63, repro,
2006-10-01,1.77, 1.28, -4.93, 2.00, 1.69, 7.63, repro,
2006-10-02,2.42, 3.06, -5.19, 2.04, 1.74, 7.69, repro,
2006-10-03,0.60, 1.96, -10.38, 2.09, 1.84, 8.03, repro,
2006-10-04,2.06, -0.08, -6.47, 2.04, 1.69, 7.68, repro,
2006-10-05,2.18, 1.94, 0.02, 2.06, 1.70, 7.94, repro,
2006-10-06,1.05, 1.64, -5.08, 2.05, 1.69, 7.86, repro,
2006-10-07,0.62, -0.24, -9.12, 2.09, 1.83, 8.26, repro,
2006-10-08,0.88, -0.15, -11.13, 2.05, 1.74, 7.95, repro,
2006-10-09,-0.51, 0.63, -7.85, 2.11, 1.77, 8.13, repro,
2006-10-10,0.67, 0.76, -1.51, 2.02, 1.71, 7.77, repro,
2006-10-11,-0.34, 0.32, -4.23, 2.03, 1.76, 7.93, repro,
2006-10-12,0.89, -0.12, -2.47, 2.02, 1.69, 7.66, repro,
2006-10-13,-0.15, -0.81, -0.89, 2.00, 1.68, 7.70, repro,
2006-10-14,1.55, 0.52, -0.61, 1.94, 1.66, 7.55, repro,
2006-10-15,-0.43, 0.60, 2.52, 1.97, 1.71, 7.68, repro,
2006-10-16,0.29, -0.54, 11.42, 1.98, 1.68, 7.61, repro,
2006-10-17,3.41, 0.97, 3.56, 2.04, 1.76, 7.95, repro,
2006-10-18,3.14, -0.48, 0.54, 2.03, 1.80, 8.12, repro,
2006-10-19,1.00, 0.70, -2.83, 2.29, 1.92, 9.05, repro,
2006-10-20,1.19, -0.20, 5.02, 2.25, 1.94, 9.33, repro,
2006-10-21,-0.46, 0.05, 0.75, 2.20, 1.89, 8.67, repro,
2006-10-22,-0.60, 0.35, -6.67, 1.98, 1.75, 7.79, repro,
2006-10-23,0.44, 0.10, -9.19, 2.12, 1.81, 8.25, repro,
2006-10-24,1.17, -0.22, -3.51, 2.14, 1.79, 8.24, repro,
2006-10-25,0.45, 1.79, -3.11, 2.21, 1.91, 8.72, repro,
2006-10-26,0.28, 0.80, -3.50, 2.01, 1.79, 7.81, repro,
2006-10-27,0.88, 1.68, -7.60, 1.98, 1.78, 7.84, repro,
2006-10-28,-0.18, 0.94, -7.76, 2.15, 1.83, 8.60, repro,
2006-10-29,-0.49, 0.89, -5.53, 1.96, 1.72, 7.57, repro,
2006-10-30,-0.56, 0.72, 0.22, 1.91, 1.66, 7.40, repro,
2006-10-31,-0.55, 0.56, 2.72, 1.97, 1.73, 7.62, repro,
2006-11-01,-0.84, 0.07, -1.01, 2.18, 1.90, 8.79, repro,
2006-11-02,0.04, 3.43, 0.26, 1.94, 1.69, 7.54, repro,
2006-11-03,0.44, 1.65, -3.96, 1.96, 1.74, 7.68, repro,
2006-11-04,-0.42, 1.01, -3.42, 2.01, 1.74, 7.79, repro,
2006-11-05,0.06, 1.54, -3.74, 1.99, 1.72, 7.62, repro,
2006-11-06,-0.07, 0.45, -5.73, 1.90, 1.65, 7.35, repro,
2006-11-07,0.09, 1.54, -3.13, 2.06, 1.81, 8.12, repro,
2006-11-08,-0.48, 0.87, 2.91, 2.04, 1.76, 7.91, repro,
2006-11-09,0.90, 0.94, -0.38, 2.05, 1.79, 8.01, repro,
2006-11-10,-0.93, 1.06, -4.08, 1.99, 1.68, 7.67, repro,
2006-11-11,0.66, 1.33, -8.50, 2.02, 1.72, 7.80, repro,
2006-11-12,-0.58, -0.16, -1.68, 2.05, 1.81, 8.02, repro,
2006-11-13,0.27, 0.59, -0.93, 2.02, 1.73, 7.79, repro,
2006-11-14,1.36, -1.61, 7.22, 1.95, 1.66, 7.51, repro,
2006-11-15,0.54, 0.55, -4.31, 1.92, 1.65, 7.38, repro,
2006-11-16,-0.67, 1.21, 0.02, 1.91, 1.65, 7.36, repro,
2006-11-17,-0.25, 0.48, 0.22, 1.91, 1.65, 7.36, repro,
2006-11-18,-0.04, 1.38, -6.17, 1.92, 1.64, 7.34, repro,
2006-11-19,-0.20, 0.92, -13.98, 1.90, 1.63, 7.29, repro,
2006-11-20,-0.34, 1.46, -12.09, 1.90, 1.63, 7.29, repro,
2006-11-21,-0.62, 0.95, -4.29, 1.91, 1.64, 7.33, repro,
2006-11-22,0.02, 0.80, -3.33, 1.91, 1.65, 7.35, repro,
2006-11-23,-0.20, -0.38, -10.86, 1.95, 1.70, 7.63, repro,
2006-11-24,0.10, 0.25, -8.48, 2.01, 1.72, 7.74, repro,
2006-11-25,-0.37, 0.27, -6.39, 1.94, 1.65, 7.40, repro,
2006-11-26,-0.76, 0.57, -6.02, 1.94, 1.65, 7.40, repro,
2006-11-27,-2.63, -0.01, -5.21, 1.94, 1.65, 7.47, repro,
2006-11-28,-1.23, 0.33, -1.18, 1.93, 1.66, 7.40, repro,
2006-11-29,-1.47, -0.18, -5.73, 1.93, 1.65, 7.39, repro,
2006-11-30,0.43, 0.63, -13.36, 1.92, 1.65, 7.32, repro,
2006-12-01,0.16, 0.77, -11.91, 1.91, 1.64, 7.30, repro,
2006-12-02,-0.96, 0.99, -12.94, 1.91, 1.66, 7.33, repro,
2006-12-03,-0.52, 0.75, -9.36, 1.92, 1.65, 7.34, repro,
2006-12-04,0.45, 0.56, -16.41, 1.97, 1.67, 7.49, repro,
2006-12-05,-1.12, 0.80, -9.40, 2.00, 1.79, 7.67, repro,
2006-12-06,0.74, -0.18, -6.76, 2.06, 1.83, 8.08, repro,
2006-12-07,0.11, 0.20, -10.55, 1.94, 1.72, 7.49, repro,
2006-12-08,-0.11, 0.62, -6.83, 1.94, 1.73, 7.51, repro,
2006-12-09,-0.10, 1.23, -8.97, 2.05, 1.81, 7.78, repro,
2006-12-10,2.06, -1.60, -11.47, 2.00, 1.73, 7.64, repro,
2006-12-11,-0.02, -0.66, -6.14, 1.91, 1.68, 7.37, repro,
2006-12-12,0.95, 0.10, -11.17, 2.05, 1.76, 7.88, repro,
2006-12-13,0.90, 0.86, -10.66, 1.92, 1.73, 7.48, repro,
2006-12-14,0.76, -0.27, -6.90, 1.92, 1.68, 7.46, repro,
2006-12-15,0.37, -0.03, -9.78, 2.01, 1.77, 7.80, repro,
2006-12-16,0.94, -0.48, -4.09, 2.03, 1.81, 7.74, repro,
2006-12-17,0.10, -0.66, -7.10, 2.04, 1.82, 8.08, repro,
2006-12-18,1.48, 0.35, -6.18, 2.25, 1.99, 8.92, repro,